Time,TemperatureF,DewpointF,PressureIn,WindDirection,WindDirectionDegrees,WindSpeedMPH,WindSpeedGustMPH,Humidity,HourlyPrecipIn,Conditions,Clouds,dailyrainin,SoftwareType,DateUTC
2013-04-12 00:14:00,77.4,74.0,29.88,SSE,152,1.0,7.0,88,0.00,,,0.00,weatherlink.com 1.10,2013-04-12 04:14:00,
2013-04-12 00:29:00,77.4,74.0,29.88,ENE,75,2.0,10.0,89,0.00,,,0.00,weatherlink.com 1.10,2013-04-12 04:29:00,
2013-04-12 00:44:00,77.5,74.0,29.88,SE,146,4.0,8.0,88,0.00,,,0.00,weatherlink.com 1.10,2013-04-12 04:44:00,
2013-04-12 00:59:00,77.6,74.0,29.88,SE,139,2.0,10.0,87,0.00,,,0.00,weatherlink.com 1.10,2013-04-12 04:59:00,
2013-04-12 01:14:00,77.6,73.0,29.88,SE,133,2.0,12.0,86,0.00,,,0.00,weatherlink.com 1.10,2013-04-12 05:14:00,
2013-04-12 01:29:00,77.6,74.0,29.88,SSE,158,2.0,6.0,87,0.00,,,0.00,weatherlink.com 1.10,2013-04-12 05:29:00,
2013-04-12 01:44:00,77.6,74.0,29.89,SE,127,2.0,9.0,87,0.00,,,0.00,weatherlink.com 1.10,2013-04-12 05:44:00,
2013-04-12 01:59:00,77.5,74.0,29.89,ESE,102,0.0,9.0,88,0.00,,,0.00,weatherlink.com 1.10,2013-04-12 05:59:00,
2013-04-12 02:14:00,77.5,74.0,29.90,SE,141,2.0,7.0,88,0.00,,,0.00,weatherlink.com 1.10,2013-04-12 06:14:00,
2013-04-12 02:29:00,77.5,74.0,29.90,SE,145,3.0,6.0,88,0.00,,,0.00,weatherlink.com 1.10,2013-04-12 06:29:00,
2013-04-12 02:44:00,77.5,74.0,29.90,SSE,155,1.0,6.0,88,0.00,,,0.00,weatherlink.com 1.10,2013-04-12 06:44:00,
2013-04-12 02:59:00,77.6,74.0,29.90,SSW,195,0.0,5.0,88,0.00,,,0.00,weatherlink.com 1.10,2013-04-12 06:59:00,
2013-04-12 03:14:00,77.8,74.0,29.90,SE,138,2.0,6.0,87,0.00,,,0.00,weatherlink.com 1.10,2013-04-12 07:14:00,
2013-04-12 03:29:00,77.9,74.0,29.90,SSE,149,1.0,8.0,87,0.00,,,0.00,weatherlink.com 1.10,2013-04-12 07:29:00,
2013-04-12 03:44:00,77.9,74.0,29.90,ESE,115,1.0,8.0,87,0.00,,,0.00,weatherlink.com 1.10,2013-04-12 07:44:00,
2013-04-12 03:59:00,77.7,74.0,29.90,SSW,201,2.0,8.0,87,0.00,,,0.00,weatherlink.com 1.10,2013-04-12 07:59:00,
2013-04-12 04:14:00,77.8,74.0,29.89,SSE,162,3.0,8.0,87,0.00,,,0.00,weatherlink.com 1.10,2013-04-12 08:14:00,
2013-04-12 04:29:00,77.6,74.0,29.89,SE,143,2.0,10.0,88,0.00,,,0.00,weatherlink.com 1.10,2013-04-12 08:29:00,
2013-04-12 04:44:00,77.5,74.0,29.88,SSE,149,1.0,6.0,88,0.00,,,0.00,weatherlink.com 1.10,2013-04-12 08:44:00,
2013-04-12 04:59:00,77.3,74.0,29.89,SE,136,6.0,7.0,88,0.00,,,0.00,weatherlink.com 1.10,2013-04-12 08:59:00,
2013-04-12 05:14:00,77.3,74.0,29.89,East,99,1.0,8.0,88,0.00,,,0.00,weatherlink.com 1.10,2013-04-12 09:14:00,
2013-04-12 05:29:00,77.3,74.0,29.90,South,176,1.0,5.0,89,0.00,,,0.00,weatherlink.com 1.10,2013-04-12 09:29:00,
2013-04-12 05:44:00,77.2,74.0,29.89,ESE,120,1.0,3.0,89,0.00,,,0.00,weatherlink.com 1.10,2013-04-12 09:44:00,
2013-04-12 05:59:00,77.2,74.0,29.89,SSE,151,0.0,5.0,89,0.00,,,0.00,weatherlink.com 1.10,2013-04-12 09:59:00,
2013-04-12 06:14:00,77.4,74.0,29.89,SE,126,3.0,4.0,90,0.00,,,0.00,weatherlink.com 1.10,2013-04-12 10:14:00,
2013-04-12 06:29:00,77.2,74.0,29.90,SE,125,3.0,5.0,90,0.00,,,0.00,weatherlink.com 1.10,2013-04-12 10:29:00,
2013-04-12 06:44:00,77.1,74.0,29.91,SE,124,1.0,4.0,90,0.00,,,0.00,weatherlink.com 1.10,2013-04-12 10:44:00,
2013-04-12 06:59:00,77.2,74.0,29.91,SE,143,1.0,5.0,90,0.00,,,0.00,weatherlink.com 1.10,2013-04-12 10:59:00,
2013-04-12 07:14:00,77.1,74.0,29.91,SE,139,2.0,6.0,90,0.00,,,0.00,weatherlink.com 1.10,2013-04-12 11:14:00,
2013-04-12 07:29:00,77.3,75.0,29.90,SSE,165,1.0,4.0,91,0.00,,,0.00,weatherlink.com 1.10,2013-04-12 11:29:00,
2013-04-12 07:44:00,77.7,75.0,29.91,SE,130,0.0,5.0,90,0.00,,,0.00,weatherlink.com 1.10,2013-04-12 11:44:00,
2013-04-12 08:00:00,78.1,75.0,29.91,SSE,165,2.0,9.0,89,0.00,,,0.00,weatherlink.com 1.10,2013-04-12 12:00:00,
2013-04-12 08:14:00,78.7,75.0,29.91,SSE,160,2.0,10.0,88,0.00,,,0.00,weatherlink.com 1.10,2013-04-12 12:14:00,
2013-04-12 08:29:00,79.3,75.0,29.93,SSW,210,1.0,8.0,87,0.00,,,0.00,weatherlink.com 1.10,2013-04-12 12:29:00,
2013-04-12 08:45:00,79.4,75.0,29.93,East,91,1.0,5.0,87,0.00,,,0.00,weatherlink.com 1.10,2013-04-12 12:45:00,
2013-04-12 09:00:00,79.8,75.0,29.92,South,173,8.0,10.0,86,0.00,,,0.00,weatherlink.com 1.10,2013-04-12 13:00:00,
2013-04-12 09:15:00,81.5,76.0,29.92,SSW,211,3.0,8.0,83,0.00,,,0.00,weatherlink.com 1.10,2013-04-12 13:15:00,
2013-04-12 09:30:00,82.6,76.0,29.92,SSE,167,4.0,9.0,81,0.00,,,0.00,weatherlink.com 1.10,2013-04-12 13:30:00,
2013-04-12 09:45:00,82.7,76.0,29.92,South,188,4.0,10.0,81,0.00,,,0.00,weatherlink.com 1.10,2013-04-12 13:45:00,
2013-04-12 10:00:00,83.1,77.0,29.92,SE,132,4.0,10.0,81,0.00,,,0.00,weatherlink.com 1.10,2013-04-12 14:00:00,
2013-04-12 10:15:00,83.5,77.0,29.91,East,93,5.0,7.0,80,0.00,,,0.00,weatherlink.com 1.10,2013-04-12 14:15:00,
2013-04-12 10:30:00,84.0,77.0,29.92,NE,50,3.0,12.0,78,0.00,,,0.00,weatherlink.com 1.10,2013-04-12 14:30:00,
2013-04-12 10:45:00,84.5,77.0,29.92,ESE,110,3.0,13.0,78,0.00,,,0.00,weatherlink.com 1.10,2013-04-12 14:45:00,
2013-04-12 11:00:00,84.2,76.0,29.92,SE,146,3.0,11.0,77,0.00,,,0.00,weatherlink.com 1.10,2013-04-12 15:00:00,
2013-04-12 11:15:00,85.4,76.0,29.92,East,86,4.0,13.0,74,0.00,,,0.00,weatherlink.com 1.10,2013-04-12 15:15:00,
2013-04-12 11:30:00,86.7,78.0,29.92,SSW,205,3.0,8.0,76,0.00,,,0.00,weatherlink.com 1.10,2013-04-12 15:30:00,
2013-04-12 11:45:00,86.7,76.0,29.92,SSE,153,2.0,10.0,70,0.00,,,0.00,weatherlink.com 1.10,2013-04-12 15:45:00,
2013-04-12 12:00:00,86.5,77.0,29.92,East,100,4.0,8.0,73,0.00,,,0.00,weatherlink.com 1.10,2013-04-12 16:00:00,
2013-04-12 12:15:00,85.9,77.0,29.92,ESE,110,4.0,8.0,75,0.00,,,0.00,weatherlink.com 1.10,2013-04-12 16:15:00,
2013-04-12 12:30:00,87.4,79.0,29.91,ENE,67,3.0,9.0,75,0.00,,,0.00,weatherlink.com 1.10,2013-04-12 16:30:00,
2013-04-12 12:45:00,87.2,78.0,29.91,SSW,204,4.0,8.0,73,0.00,,,0.00,weatherlink.com 1.10,2013-04-12 16:45:00,
2013-04-12 13:00:00,88.8,78.0,29.90,SSW,201,3.0,13.0,70,0.00,,,0.00,weatherlink.com 1.10,2013-04-12 17:00:00,
2013-04-12 13:15:00,89.4,77.0,29.90,SSW,199,4.0,11.0,67,0.00,,,0.00,weatherlink.com 1.10,2013-04-12 17:15:00,
2013-04-12 13:45:00,87.1,77.0,29.89,SE,127,2.0,13.0,71,0.00,,,0.00,weatherlink.com 1.10,2013-04-12 17:45:00,
2013-04-12 14:00:00,85.8,76.0,29.88,SW,219,5.0,9.0,73,0.00,,,0.00,weatherlink.com 1.10,2013-04-12 18:00:00,
2013-04-12 15:30:00,80.9,76.0,29.87,WSW,239,0.0,5.0,85,0.04,,,0.04,weatherlink.com 1.10,2013-04-12 19:30:00,
2013-04-12 15:46:00,78.6,76.0,29.87,ESE,104,4.0,5.0,91,0.94,,,0.94,weatherlink.com 1.10,2013-04-12 19:46:00,
2013-04-12 16:01:00,76.6,75.0,29.87,SE,138,4.0,11.0,95,1.30,,,1.30,weatherlink.com 1.10,2013-04-12 20:01:00,
2013-04-12 16:16:00,75.3,74.0,29.87,SE,130,5.0,12.0,96,1.62,,,1.62,weatherlink.com 1.10,2013-04-12 20:16:00,
2013-04-12 17:01:00,72.8,72.0,29.85,WSW,257,0.0,2.0,98,0.52,,,1.86,weatherlink.com 1.10,2013-04-12 21:01:00,
2013-04-12 17:46:00,76.8,76.0,29.85,East,83,0.0,0.0,98,0.03,,,1.86,weatherlink.com 1.10,2013-04-12 21:46:00,
2013-04-12 18:01:00,78.4,78.0,29.85,East,96,0.0,1.0,97,0.00,,,1.86,weatherlink.com 1.10,2013-04-12 22:01:00,
2013-04-12 18:16:00,79.3,78.0,29.85,ESE,102,2.0,2.0,96,0.00,,,1.86,weatherlink.com 1.10,2013-04-12 22:16:00,
2013-04-12 18:31:00,79.6,78.0,29.86,ESE,109,1.0,2.0,95,0.00,,,1.86,weatherlink.com 1.10,2013-04-12 22:31:00,
2013-04-12 18:46:00,79.5,78.0,29.86,SSW,203,0.0,2.0,94,0.00,,,1.86,weatherlink.com 1.10,2013-04-12 22:46:00,
2013-04-12 19:01:00,79.1,77.0,29.87,SE,133,0.0,4.0,94,0.00,,,1.86,weatherlink.com 1.10,2013-04-12 23:01:00,
2013-04-12 19:16:00,78.3,77.0,29.87,SE,124,0.0,1.0,94,0.00,,,1.86,weatherlink.com 1.10,2013-04-12 23:16:00,
2013-04-12 19:31:00,77.8,76.0,29.87,South,169,0.0,7.0,94,0.00,,,1.86,weatherlink.com 1.10,2013-04-12 23:31:00,
2013-04-12 19:46:00,77.4,76.0,29.88,SE,137,0.0,2.0,94,0.00,,,1.86,weatherlink.com 1.10,2013-04-12 23:46:00,
2013-04-12 20:01:00,77.1,76.0,29.88,ESE,113,0.0,4.0,95,0.00,,,1.86,weatherlink.com 1.10,2013-04-13 00:01:00,
2013-04-12 20:16:00,76.9,75.0,29.89,South,170,0.0,2.0,95,0.00,,,1.86,weatherlink.com 1.10,2013-04-13 00:16:00,
2013-04-12 20:31:00,76.7,75.0,29.89,SSW,204,0.0,1.0,95,0.00,,,1.86,weatherlink.com 1.10,2013-04-13 00:31:00,
2013-04-12 20:46:00,76.6,75.0,29.90,ESE,105,0.0,1.0,96,0.00,,,1.86,weatherlink.com 1.10,2013-04-13 00:46:00,
2013-04-12 21:01:00,76.3,75.0,29.90,ESE,104,0.0,0.0,96,0.00,,,1.86,weatherlink.com 1.10,2013-04-13 01:01:00,
2013-04-12 21:16:00,76.3,75.0,29.90,South,169,0.0,1.0,96,0.00,,,1.86,weatherlink.com 1.10,2013-04-13 01:16:00,
2013-04-12 21:31:00,76.3,75.0,29.91,SE,128,1.0,2.0,96,0.00,,,1.86,weatherlink.com 1.10,2013-04-13 01:31:00,
2013-04-12 21:46:00,76.6,75.0,29.91,SSW,204,0.0,3.0,95,0.00,,,1.86,weatherlink.com 1.10,2013-04-13 01:46:00,
2013-04-12 22:01:00,76.9,75.0,29.92,SW,219,0.0,2.0,94,0.00,,,1.86,weatherlink.com 1.10,2013-04-13 02:01:00,
2013-04-12 22:16:00,77.0,75.0,29.92,SSW,212,0.0,1.0,93,0.00,,,1.86,weatherlink.com 1.10,2013-04-13 02:16:00,
2013-04-12 22:31:00,76.7,75.0,29.92,SW,217,0.0,2.0,93,0.00,,,1.86,weatherlink.com 1.10,2013-04-13 02:31:00,
2013-04-12 22:46:00,76.6,75.0,29.92,SW,218,0.0,2.0,93,0.00,,,1.86,weatherlink.com 1.10,2013-04-13 02:46:00,
2013-04-12 23:01:00,76.6,75.0,29.93,SSW,212,0.0,2.0,93,0.00,,,1.86,weatherlink.com 1.10,2013-04-13 03:01:00,
2013-04-12 23:16:00,76.6,74.0,29.93,SSW,212,0.0,2.0,92,0.00,,,1.86,weatherlink.com 1.10,2013-04-13 03:16:00,
2013-04-12 23:31:00,76.2,74.0,29.93,ESE,114,0.0,1.0,93,0.00,,,1.86,weatherlink.com 1.10,2013-04-13 03:31:00,
2013-04-12 23:46:00,75.9,74.0,29.93,ESE,116,0.0,0.0,93,0.00,,,1.86,weatherlink.com 1.10,2013-04-13 03:46:00,